MIDAS 5 DEB, 274

Orbit data source: Space-Track

MIDAS 5 DEB, 274 is space debris in LEO originally from a launch on Mon, 09 Apr 1962 UTC launched from the Air Force Western Test Range (AFWTR). Debris objects in space refer to the collection of defunct objects orbiting the Earth. Examples of debris include non-operational satellites, rocket bodies, and fragments generated from explosions, collisions, or faulty payload assembly.

Loading next visibility...
Identifier
274, 1962-010D
Orbit
LEO
Country
Flag of USUS
Related business
Manufacturer
Unknown
Mission
Spacecraft
Bus & Motor
Unknown
Mass
~10 kg wet, ~10 kg dry
Launch date (UTC)
1962-04-09 (63 years ago)
Launch vehicle
Unknown
Launch site
Air Force Western Test Range (AFWTR)
Object type
Payload
Rocket body
Debris
Shape & HBR
Unknown
Radar Cross Section
Medium (>0.1 m² and <1 m²)

Expand to show TLE details & history
Last TLE update: 20 hours ago

TLE from 20 hours ago
0 MIDAS 5 DEB
1 00274U 62010D   25242.32546858  .00000023  00000-0  37241-2 0  9992
2 00274  86.6743  15.6484 0352726 164.5544 196.6452  9.39386561173476
Epoch: 2025-08-30T07:48Z
TLE epoch observation values (Epoch: 2025-08-30T07:48:40.485Z)
Latitude
0.00001°
Longitude
-80.28167°
Altitude
3,433.723 km
Speed
6.266 km/s
True Right ascension
01h 02m 35s
True Declination
0° 00' 00"
Sunlit
Object was in full shadow at epoch
Visualization orbit readout
Latitude
Unknown
Longitude
Unknown
Altitude
Unknown
Speed
Unknown
Apparent Right ascension
Unknown
Apparent Declination
Unknown
Sunlit
N/A
Visualization observer readout
Local Sidereal Time
19:14:33
Azimuth
Unknown
Elevation
Unknown
Doppler factor
Unknown
Orbital elements
Apogee altitude
3,442.099 km
Perigee altitude
2,772.931 km
Semi-major axis
9,485.652 km
Eccentricity
0.03527
Inclination
86.6743°
RAAN
15.6484°
Arg. of periapsis
164.5544°
True anomaly
195.53448°
Mean anomaly
196.6452°
Eccentric anomaly
196.08525°
Mean motion
2.34932 °/min
Orbital period
153.24 mins
BSTAR
0.0037241
Loading maneuver chart data...
Computing Atmospheric mass density...
Loading historical data...
Loading historical data...
Loading historical data...
Loading historical data...
Loading historical data...
Loading historical data...
Loading historical data...

Documentation

Showing up to 5 results
|